| time (UTC) | temp F | wind direction | speed MPH | gust MPH | rain 1hr in | rain 24hr in | rain mn in | humidity % | barometer mb |
| 20260506212044 | 31 | 0 | 0.0 | 6.0 | 0.03 | 0.10 | 0.07 | 91 | 1018.8 |
| 20260506211548 | 31 | 0 | 1.0 | 7.0 | 0.03 | 0.10 | 0.07 | 91 | 1018.8 |
| 20260506211047 | 31 | 0 | 1.0 | 7.0 | 0.03 | 0.10 | 0.07 | 90 | 1018.7 |
| 20260506210548 | 31 | 0 | 0.0 | 6.0 | 0.03 | 0.09 | 0.06 | 90 | 1018.8 |
| 20260506210056 | 31 | 0 | 0.0 | 6.0 | 0.03 | 0.09 | 0.06 | 91 | 1018.8 |
| 20260506205548 | 31 | 0 | 1.0 | 6.0 | 0.03 | 0.10 | 0.06 | 90 | 1018.9 |
| 20260506205048 | 31 | 72 | 0.0 | 3.0 | 0.02 | 0.09 | 0.05 | 91 | 1018.8 |
| 20260506204547 | 30 | 0 | 0.0 | 4.0 | 0.02 | 0.09 | 0.05 | 90 | 1018.8 |
| 20260506204047 | 30 | 0 | 0.0 | 4.0 | 0.03 | 0.09 | 0.05 | 90 | 1018.9 |
| 20260506203548 | 30 | 94 | 0.0 | 4.0 | 0.03 | 0.09 | 0.05 | 90 | 1019.1 |
| 20260506203046 | 30 | 0 | 0.0 | 4.0 | 0.03 | 0.09 | 0.05 | 91 | 1019.0 |
| 20260506202547 | 30 | 68 | 0.0 | 5.0 | 0.03 | 0.08 | 0.04 | 91 | 1019.1 |
| 20260506202049 | 30 | 0 | 0.0 | 5.0 | 0.03 | 0.08 | 0.04 | 90 | 1019.1 |
| 20260506201551 | 30 | 0 | 0.0 | 4.0 | 0.03 | 0.08 | 0.04 | 90 | 1019.2 |
| 20260506201048 | 30 | 0 | 0.0 | 4.0 | 0.04 | 0.08 | 0.04 | 91 | 1019.2 |
| 20260506200547 | 30 | 61 | 0.0 | 6.0 | 0.03 | 0.07 | 0.03 | 91 | 1019.2 |
| 20260506200048 | 30 | 61 | 1.0 | 9.0 | 0.03 | 0.07 | 0.03 | 91 | 1019.2 |
| 20260506195552 | 30 | 52 | 0.0 | 9.0 | 0.03 | 0.09 | 0.03 | 91 | 1019.1 |
| 20260506195048 | 30 | 60 | 1.0 | 9.0 | 0.03 | 0.09 | 0.03 | 90 | 1019.2 |
| 20260506194552 | 30 | 0 | 0.0 | 5.0 | 0.03 | 0.09 | 0.03 | 90 | 1019.3 |
| 20260506194048 | 30 | 65 | 0.0 | 8.0 | 0.02 | 0.08 | 0.02 | 91 | 1019.3 |
| 20260506193546 | 30 | 0 | 1.0 | 8.0 | 0.02 | 0.08 | 0.02 | 90 | 1019.3 |
| 20260506193047 | 31 | 101 | 1.0 | 6.0 | 0.02 | 0.08 | 0.02 | 90 | 1019.3 |
| 20260506192544 | 31 | 94 | 1.0 | 7.0 | 0.01 | 0.07 | 0.01 | 89 | 1019.3 |
| 20260506192048 | 31 | 92 | 1.0 | 7.0 | 0.01 | 0.07 | 0.01 | 89 | 1019.4 |
| 20260506191551 | 31 | 0 | 2.0 | 7.0 | 0.01 | 0.07 | 0.01 | 89 | 1019.4 |
| 20260506191047 | 31 | 0 | 0.0 | 5.0 | 0.00 | 0.06 | 0.00 | 89 | 1019.3 |
| 20260506190547 | 31 | 120 | 1.0 | 5.0 | 0.00 | 0.06 | 0.00 | 89 | 1019.4 |
| 20260506190055 | 31 | 0 | 2.0 | 6.0 | 0.00 | 0.06 | 0.00 | 90 | 1019.3 |
| 20260506185547 | 30 | 0 | 0.0 | 6.0 | 0.00 | 0.07 | 0.00 | 91 | 1019.4 |
| 20260506185047 | 30 | 0 | 0.0 | 6.0 | 0.00 | 0.07 | 0.00 | 89 | 1019.5 |
| 20260506184612 | 30 | 0 | 1.0 | 6.0 | 0.00 | 0.07 | 0.00 | 90 | 1019.5 |
| 20260506184045 | 29 | 49 | 0.0 | 6.0 | 0.00 | 0.07 | 0.00 | 90 | 1019.6 |
| 20260506183551 | 29 | 46 | 0.0 | 6.0 | 0.00 | 0.07 | 0.00 | 89 | 1019.6 |
| 20260506183049 | 29 | 0 | 0.0 | 6.0 | 0.00 | 0.07 | 0.00 | 89 | 1019.7 |
| 20260506182547 | 29 | 60 | 2.0 | 6.0 | 0.00 | 0.07 | 0.00 | 89 | 1019.8 |
| 20260506182051 | 29 | 0 | 0.0 | 5.0 | 0.00 | 0.07 | 0.00 | 90 | 1019.8 |
| 20260506181551 | 29 | 48 | 2.0 | 7.0 | 0.00 | 0.07 | 0.00 | 90 | 1019.7 |
| 20260506181047 | 29 | 0 | 1.0 | 7.0 | 0.00 | 0.07 | 0.00 | 90 | 1019.6 |
| 20260506180547 | 29 | 49 | 2.0 | 7.0 | 0.00 | 0.07 | 0.00 | 91 | 1019.8 |
| 20260506180056 | 28 | 0 | 3.0 | 7.0 | 0.00 | 0.07 | 0.00 | 91 | 1019.7 |
| 20260506175546 | 28 | 57 | 2.0 | 6.0 | 0.00 | 0.08 | 0.00 | 91 | 1019.7 |
| 20260506175050 | 28 | 0 | 2.0 | 7.0 | 0.00 | 0.08 | 0.00 | 91 | 1019.7 |
| 20260506174552 | 28 | 57 | 1.0 | 7.0 | 0.00 | 0.08 | 0.00 | 91 | 1019.7 |
| 20260506174047 | 27 | 0 | 3.0 | 9.0 | 0.00 | 0.08 | 0.00 | 91 | 1019.8 |
| 20260506173547 | 27 | 0 | 1.0 | 9.0 | 0.00 | 0.08 | 0.00 | 91 | 1019.9 |
| 20260506173052 | 27 | 38 | 3.0 | 9.0 | 0.00 | 0.08 | 0.00 | 91 | 1019.9 |
| 20260506172546 | 27 | 38 | 2.0 | 8.0 | 0.00 | 0.08 | 0.00 | 91 | 1019.8 |
| 20260506172048 | 27 | 38 | 1.0 | 8.0 | 0.00 | 0.08 | 0.00 | 92 | 1019.8 |
| 20260506171557 | 26 | 38 | 3.0 | 9.0 | 0.00 | 0.08 | 0.00 | 92 | 1019.8 |
| 20260506171048 | 26 | 0 | 1.0 | 11.0 | 0.00 | 0.08 | 0.00 | 92 | 1019.7 |
| 20260506170545 | 26 | 38 | 4.0 | 11.0 | 0.00 | 0.08 | 0.00 | 92 | 1019.8 |
| 20260506170057 | 26 | 38 | 3.0 | 9.0 | 0.00 | 0.08 | 0.00 | 92 | 1019.6 |
| 20260506165547 | 25 | 38 | 3.0 | 10.0 | 0.00 | 0.09 | 0.00 | 92 | 1019.7 |
| 20260506165047 | 26 | 38 | 4.0 | 10.0 | 0.00 | 0.09 | 0.00 | 92 | 1019.6 |
| 20260506164551 | 26 | 0 | 3.0 | 10.0 | 0.00 | 0.09 | 0.00 | 92 | 1019.5 |
| 20260506164046 | 26 | 38 | 4.0 | 10.0 | 0.00 | 0.09 | 0.00 | 92 | 1019.5 |
| 20260506163547 | 25 | 38 | 1.0 | 7.0 | 0.00 | 0.09 | 0.00 | 92 | 1019.3 |
| 20260506163107 | 25 | 0 | 1.0 | 9.0 | 0.00 | 0.09 | 0.00 | 93 | 1019.3 |
| 20260506162551 | 25 | 38 | 3.0 | 9.0 | 0.00 | 0.09 | 0.00 | 92 | 1019.2 |
| 20260506162048 | 25 | 38 | 4.0 | 9.0 | 0.00 | 0.09 | 0.00 | 93 | 1019.1 |
| 20260506161553 | 25 | 38 | 2.0 | 9.0 | 0.00 | 0.09 | 0.00 | 92 | 1019.0 |
| 20260506161045 | 25 | 38 | 2.0 | 9.0 | 0.00 | 0.09 | 0.00 | 93 | 1019.0 |
| 20260506160549 | 25 | 38 | 2.0 | 13.0 | 0.00 | 0.09 | 0.00 | 93 | 1018.9 |
| 20260506160101 | 25 | 38 | 3.0 | 13.0 | 0.00 | 0.09 | 0.00 | 93 | 1018.7 |
| 20260506155545 | 25 | 38 | 4.0 | 13.0 | 0.00 | 0.09 | 0.00 | 93 | 1018.9 |
| 20260506155047 | 25 | 38 | 3.0 | 10.0 | 0.00 | 0.09 | 0.00 | 93 | 1018.7 |
| 20260506154550 | 25 | 38 | 3.0 | 10.0 | 0.00 | 0.09 | 0.00 | 93 | 1018.7 |
| 20260506154051 | 25 | 38 | 3.0 | 9.0 | 0.00 | 0.09 | 0.00 | 93 | 1018.7 |
| 20260506153546 | 25 | 38 | 2.0 | 10.0 | 0.00 | 0.09 | 0.00 | 93 | 1018.8 |
| 20260506153046 | 25 | 38 | 4.0 | 10.0 | 0.00 | 0.09 | 0.00 | 93 | 1018.7 |
| 20260506152547 | 25 | 38 | 4.0 | 12.0 | 0.00 | 0.09 | 0.00 | 93 | 1018.7 |
| 20260506152047 | 25 | 38 | 4.0 | 12.0 | 0.00 | 0.09 | 0.00 | 93 | 1018.5 |
| 20260506151557 | 25 | 38 | 3.0 | 9.0 | 0.00 | 0.09 | 0.00 | 93 | 1018.5 |
| 20260506151047 | 25 | 38 | 4.0 | 8.0 | 0.00 | 0.09 | 0.00 | 93 | 1018.5 |
| 20260506150548 | 25 | 38 | 0.0 | 5.0 | 0.00 | 0.09 | 0.00 | 93 | 1018.5 |
| 20260506150055 | 25 | 0 | 1.0 | 10.0 | 0.00 | 0.09 | 0.00 | 93 | 1018.6 |
| 20260506145548 | 25 | 0 | 0.0 | 10.0 | 0.00 | 0.09 | 0.00 | 94 | 1018.4 |
| 20260506145048 | 25 | 38 | 1.0 | 8.0 | 0.00 | 0.09 | 0.00 | 93 | 1018.4 |
| 20260506144602 | 25 | 38 | 3.0 | 8.0 | 0.00 | 0.09 | 0.00 | 93 | 1018.4 |
| 20260506144047 | 25 | 38 | 3.0 | 9.0 | 0.00 | 0.09 | 0.00 | 93 | 1018.4 |
| 20260506143548 | 24 | 38 | 2.0 | 10.0 | 0.00 | 0.09 | 0.00 | 94 | 1018.4 |
| 20260506143057 | 24 | 38 | 3.0 | 10.0 | 0.00 | 0.09 | 0.00 | 94 | 1018.2 |
| 20260506142547 | 24 | 38 | 3.0 | 11.0 | 0.00 | 0.09 | 0.00 | 93 | 1018.2 |
| 20260506142047 | 24 | 38 | 2.0 | 11.0 | 0.00 | 0.09 | 0.00 | 94 | 1018.2 |
| 20260506141601 | 24 | 38 | 2.0 | 11.0 | 0.00 | 0.09 | 0.00 | 94 | 1018.1 |
| 20260506141048 | 24 | 38 | 2.0 | 10.0 | 0.00 | 0.09 | 0.00 | 94 | 1018.1 |
| 20260506140548 | 24 | 38 | 3.0 | 10.0 | 0.00 | 0.09 | 0.00 | 93 | 1018.1 |
| 20260506140059 | 24 | 38 | 3.0 | 10.0 | 0.00 | 0.09 | 0.00 | 93 | 1018.1 |
| 20260506135545 | 24 | 38 | 4.0 | 10.0 | 0.00 | 0.09 | 0.00 | 93 | 1018.0 |
| 20260506135048 | 24 | 38 | 0.0 | 9.0 | 0.00 | 0.09 | 0.00 | 94 | 1017.9 |
| 20260506134557 | 24 | 38 | 2.0 | 9.0 | 0.00 | 0.09 | 0.00 | 93 | 1017.9 |
| 20260506134045 | 24 | 38 | 3.0 | 9.0 | 0.00 | 0.09 | 0.00 | 94 | 1017.9 |
| 20260506133547 | 25 | 0 | 0.0 | 9.0 | 0.00 | 0.09 | 0.00 | 94 | 1017.9 |
| 20260506133100 | 25 | 0 | 1.0 | 9.0 | 0.00 | 0.09 | 0.00 | 94 | 1017.9 |
| 20260506132547 | 25 | 38 | 4.0 | 7.0 | 0.00 | 0.09 | 0.00 | 94 | 1017.9 |
| 20260506132044 | 25 | 38 | 0.0 | 5.0 | 0.00 | 0.09 | 0.00 | 94 | 1017.7 |
| 20260506131612 | 25 | 0 | 0.0 | 0.0 | 0.00 | 0.09 | 0.00 | 94 | 1017.6 |
| 20260506131044 | 25 | 0 | 0.0 | 0.0 | 0.00 | 0.09 | 0.00 | 94 | 1017.5 |
| 20260506130544 | 25 | 0 | 0.0 | 0.0 | 0.00 | 0.09 | 0.00 | 94 | 1017.4 |
| 20260506125548 | 25 | 0 | 0.0 | 0.0 | 0.00 | 0.09 | 0.00 | 94 | 1017.3 |
| 20260506125044 | 25 | 0 | 0.0 | 0.0 | 0.00 | 0.09 | 0.00 | 94 | 1017.1 |
| 20260506124553 | 25 | 0 | 0.0 | 0.0 | 0.00 | 0.09 | 0.00 | 94 | 1017.1 |
| 20260506124048 | 25 | 0 | 0.0 | 0.0 | 0.00 | 0.09 | 0.00 | 94 | 1017.1 |
| 20260506123548 | 25 | 0 | 0.0 | 0.0 | 0.00 | 0.09 | 0.00 | 94 | 1016.9 |
| 20260506123058 | 25 | 0 | 0.0 | 0.0 | 0.00 | 0.09 | 0.00 | 94 | 1016.9 |
| 20260506122547 | 25 | 0 | 0.0 | 0.0 | 0.00 | 0.09 | 0.00 | 94 | 1016.8 |
| 20260506122047 | 25 | 0 | 0.0 | 0.0 | 0.00 | 0.09 | 0.00 | 94 | 1016.8 |
| 20260506121611 | 25 | 0 | 0.0 | 0.0 | 0.00 | 0.09 | 0.00 | 94 | 1016.8 |
| 20260506121047 | 25 | 0 | 0.0 | 0.0 | 0.00 | 0.09 | 0.00 | 94 | 1016.6 |
| 20260506120545 | 25 | 0 | 0.0 | 0.0 | 0.00 | 0.09 | 0.00 | 94 | 1016.8 |
| 20260506120055 | 25 | 0 | 0.0 | 0.0 | 0.00 | 0.09 | 0.00 | 94 | 1016.8 |
| 20260506115547 | 25 | 0 | 0.0 | 0.0 | 0.00 | 0.09 | 0.00 | 94 | 1016.6 |
| 20260506115044 | 25 | 0 | 0.0 | 0.0 | 0.00 | 0.09 | 0.00 | 94 | 1016.5 |
| 20260506114553 | 25 | 0 | 0.0 | 0.0 | 0.00 | 0.09 | 0.00 | 94 | 1016.3 |
| 20260506114044 | 25 | 0 | 0.0 | 0.0 | 0.00 | 0.09 | 0.00 | 94 | 1016.4 |
| 20260506113544 | 25 | 0 | 0.0 | 0.0 | 0.00 | 0.09 | 0.00 | 94 | 1016.6 |
| 20260506113051 | 25 | 0 | 0.0 | 0.0 | 0.00 | 0.09 | 0.00 | 94 | 1016.4 |
| 20260506112547 | 25 | 0 | 0.0 | 0.0 | 0.00 | 0.09 | 0.00 | 94 | 1016.6 |
| 20260506112044 | 25 | 0 | 0.0 | 0.0 | 0.00 | 0.09 | 0.00 | 94 | 1016.4 |
| 20260506111548 | 25 | 0 | 0.0 | 0.0 | 0.00 | 0.09 | 0.00 | 94 | 1016.4 |
| 20260506111045 | 25 | 0 | 0.0 | 0.0 | 0.00 | 0.09 | 0.00 | 94 | 1016.3 |
| 20260506110545 | 25 | 0 | 0.0 | 0.0 | 0.00 | 0.09 | 0.00 | 94 | 1016.3 |
| 20260506110054 | 25 | 0 | 0.0 | 0.0 | 0.00 | 0.09 | 0.00 | 94 | 1016.4 |
| 20260506105544 | 25 | 0 | 0.0 | 0.0 | 0.00 | 0.09 | 0.00 | 94 | 1016.1 |
| 20260506105043 | 25 | 0 | 0.0 | 0.0 | 0.00 | 0.09 | 0.00 | 94 | 1016.1 |
| 20260506104548 | 25 | 0 | 0.0 | 0.0 | 0.00 | 0.09 | 0.00 | 94 | 1016.2 |
| 20260506104043 | 25 | 0 | 0.0 | 0.0 | 0.00 | 0.09 | 0.00 | 94 | 1016.2 |
| 20260506103544 | 25 | 0 | 0.0 | 4.0 | 0.00 | 0.09 | 0.00 | 94 | 1016.2 |
| 20260506103053 | 25 | 0 | 0.0 | 4.0 | 0.00 | 0.09 | 0.00 | 94 | 1016.0 |
| 20260506102544 | 25 | 38 | 0.0 | 0.0 | 0.00 | 0.09 | 0.00 | 94 | 1016.1 |
| 20260506102044 | 25 | 0 | 0.0 | 0.0 | 0.00 | 0.09 | 0.00 | 94 | 1016.1 |
| 20260506101551 | 25 | 0 | 0.0 | 0.0 | 0.00 | 0.09 | 0.00 | 94 | 1016.1 |
| 20260506101044 | 25 | 0 | 0.0 | 0.0 | 0.00 | 0.09 | 0.00 | 94 | 1016.3 |
| 20260506100543 | 25 | 0 | 0.0 | 0.0 | 0.00 | 0.09 | 0.00 | 94 | 1016.4 |
| 20260506100105 | 25 | 0 | 0.0 | 0.0 | 0.00 | 0.09 | 0.00 | 94 | 1016.4 |
| 20260506095544 | 25 | 0 | 0.0 | 0.0 | 0.00 | 0.09 | 0.00 | 94 | 1016.5 |
| 20260506095044 | 25 | 0 | 0.0 | 0.0 | 0.00 | 0.09 | 0.00 | 94 | 1016.4 |
| 20260506094552 | 25 | 0 | 0.0 | 0.0 | 0.00 | 0.09 | 0.00 | 94 | 1016.6 |
| 20260506094043 | 25 | 0 | 0.0 | 4.0 | 0.00 | 0.09 | 0.00 | 94 | 1016.5 |
| 20260506093543 | 25 | 0 | 0.0 | 4.0 | 0.00 | 0.09 | 0.00 | 94 | 1016.5 |
| 20260506093051 | 25 | 38 | 0.0 | 4.0 | 0.00 | 0.09 | 0.00 | 94 | 1016.5 |
| 20260506092544 | 25 | 0 | 1.0 | 4.0 | 0.00 | 0.09 | 0.00 | 94 | 1016.4 |
| 20260506092047 | 25 | 0 | 0.0 | 4.0 | 0.00 | 0.09 | 0.00 | 94 | 1016.3 |
| 20260506091554 | 25 | 38 | 1.0 | 4.0 | 0.00 | 0.09 | 0.00 | 94 | 1016.2 |
| 20260506091043 | 25 | 0 | 0.0 | 5.0 | 0.00 | 0.09 | 0.00 | 94 | 1016.3 |
| 20260506090639 | 25 | 38 | 0.0 | 9.0 | 0.00 | 0.09 | 0.00 | 94 | 1016.3 |
| 20260506090054 | 25 | 0 | 3.0 | 9.0 | 0.00 | 0.09 | 0.00 | 94 | 1016.4 |
| 20260506085547 | 25 | 38 | 1.0 | 8.0 | 0.00 | 0.09 | 0.00 | 94 | 1016.4 |
| 20260506085047 | 25 | 0 | 1.0 | 6.0 | 0.00 | 0.09 | 0.00 | 94 | 1016.3 |
| 20260506084550 | 25 | 38 | 1.0 | 8.0 | 0.00 | 0.09 | 0.00 | 94 | 1016.4 |
| 20260506084047 | 25 | 0 | 0.0 | 8.0 | 0.00 | 0.09 | 0.00 | 94 | 1016.4 |
| 20260506083547 | 25 | 38 | 1.0 | 8.0 | 0.00 | 0.09 | 0.00 | 94 | 1016.4 |
| 20260506083056 | 25 | 0 | 0.0 | 8.0 | 0.00 | 0.09 | 0.00 | 94 | 1016.5 |
| 20260506082546 | 25 | 0 | 3.0 | 12.0 | 0.00 | 0.09 | 0.00 | 94 | 1016.3 |
| 20260506082048 | 25 | 38 | 3.0 | 12.0 | 0.00 | 0.09 | 0.00 | 94 | 1016.5 |
| 20260506081558 | 25 | 38 | 3.0 | 8.0 | 0.00 | 0.09 | 0.00 | 94 | 1016.4 |
| 20260506081048 | 25 | 0 | 0.0 | 8.0 | 0.00 | 0.09 | 0.00 | 94 | 1016.4 |
| 20260506080547 | 25 | 38 | 1.0 | 7.0 | 0.00 | 0.09 | 0.00 | 94 | 1016.3 |
| 20260506073055 | 26 | 38 | 3.0 | 11.0 | 0.00 | 0.09 | 0.00 | 94 | 1016.9 |
| 20260506072547 | 26 | 38 | 3.0 | 11.0 | 0.00 | 0.09 | 0.00 | 94 | 1016.6 |
| 20260506072047 | 26 | 0 | 0.0 | 0.0 | 0.00 | 0.09 | 0.00 | 94 | 1016.4 |
| 20260506071558 | 27 | 0 | 0.0 | 0.0 | 0.00 | 0.09 | 0.00 | 94 | 1016.4 |
| 20260506071048 | 26 | 0 | 0.0 | 5.0 | 0.00 | 0.09 | 0.00 | 94 | 1016.5 |
| 20260506070552 | 26 | 0 | 0.0 | 5.0 | 0.00 | 0.09 | 0.00 | 94 | 1016.4 |
| 20260506062047 | 26 | 0 | 0.0 | 0.0 | 0.00 | 0.10 | 0.00 | 94 | 1016.3 |
| 20260506061556 | 26 | 0 | 0.0 | 0.0 | 0.00 | 0.10 | 0.00 | 94 | 1016.1 |
| 20260506061047 | 26 | 0 | 0.0 | 0.0 | 0.00 | 0.10 | 0.00 | 94 | 1016.1 |
| 20260506060548 | 26 | 0 | 0.0 | 0.0 | 0.00 | 0.10 | 0.00 | 94 | 1016.0 |
| 20260506051047 | 27 | 0 | 0.0 | 0.0 | 0.00 | 0.10 | 0.10 | 94 | 1015.8 |
| 20260506050545 | 27 | 0 | 0.0 | 0.0 | 0.00 | 0.10 | 0.10 | 94 | 1016.0 |
| 20260506045043 | 27 | 0 | 0.0 | 0.0 | 0.00 | 0.10 | 0.10 | 94 | 1015.8 |
| 20260506044550 | 27 | 0 | 0.0 | 0.0 | 0.00 | 0.10 | 0.10 | 94 | 1015.8 |
| 20260506044043 | 27 | 0 | 0.0 | 0.0 | 0.00 | 0.10 | 0.10 | 94 | 1015.6 |
| 20260506043544 | 27 | 0 | 0.0 | 0.0 | 0.00 | 0.10 | 0.10 | 94 | 1015.6 |
| 20260506043049 | 27 | 0 | 0.0 | 0.0 | 0.00 | 0.10 | 0.10 | 94 | 1015.4 |
| 20260506042543 | 27 | 0 | 0.0 | 0.0 | 0.00 | 0.10 | 0.10 | 94 | 1015.6 |
| 20260506042047 | 27 | 0 | 0.0 | 0.0 | 0.00 | 0.10 | 0.10 | 94 | 1015.7 |
| 20260506041554 | 27 | 0 | 0.0 | 0.0 | 0.00 | 0.10 | 0.10 | 94 | 1015.7 |
| 20260506041044 | 27 | 0 | 0.0 | 0.0 | 0.00 | 0.10 | 0.10 | 94 | 1015.6 |
| 20260506040543 | 27 | 0 | 0.0 | 0.0 | 0.00 | 0.10 | 0.10 | 94 | 1015.6 |
| 20260506040058 | 27 | 0 | 0.0 | 0.0 | 0.00 | 0.10 | 0.10 | 94 | 1015.7 |
| 20260506035544 | 27 | 0 | 0.0 | 0.0 | 0.00 | 0.12 | 0.10 | 94 | 1015.7 |
| 20260506035044 | 27 | 0 | 0.0 | 0.0 | 0.00 | 0.12 | 0.10 | 94 | 1015.6 |
| 20260506034551 | 27 | 0 | 0.0 | 0.0 | 0.00 | 0.12 | 0.10 | 94 | 1015.3 |
| 20260506034042 | 27 | 0 | 0.0 | 0.0 | 0.00 | 0.12 | 0.10 | 94 | 1015.5 |
| 20260506033544 | 27 | 0 | 0.0 | 0.0 | 0.00 | 0.12 | 0.10 | 94 | 1015.6 |
| 20260506033046 | 27 | 0 | 0.0 | 0.0 | 0.00 | 0.12 | 0.10 | 94 | 1015.6 |
| 20260506032543 | 27 | 0 | 0.0 | 0.0 | 0.00 | 0.12 | 0.10 | 94 | 1015.6 |
| 20260506032043 | 27 | 0 | 0.0 | 0.0 | 0.00 | 0.12 | 0.10 | 94 | 1015.5 |
| 20260506031545 | 27 | 0 | 0.0 | 0.0 | 0.00 | 0.12 | 0.10 | 94 | 1015.4 |
| 20260506031046 | 27 | 0 | 0.0 | 0.0 | 0.00 | 0.12 | 0.10 | 94 | 1015.3 |
| 20260506030545 | 27 | 0 | 0.0 | 0.0 | 0.00 | 0.12 | 0.10 | 94 | 1015.1 |
| 20260506030107 | 27 | 0 | 0.0 | 0.0 | 0.00 | 0.12 | 0.10 | 94 | 1014.8 |
| 20260506025544 | 27 | 0 | 0.0 | 0.0 | 0.00 | 0.30 | 0.10 | 94 | 1014.7 |
| 20260506025043 | 27 | 0 | 0.0 | 0.0 | 0.00 | 0.30 | 0.10 | 94 | 1014.5 |
| 20260506024555 | 27 | 0 | 0.0 | 0.0 | 0.00 | 0.30 | 0.10 | 94 | 1014.4 |
| 20260506024043 | 27 | 0 | 0.0 | 0.0 | 0.00 | 0.30 | 0.10 | 94 | 1014.4 |
| 20260506023544 | 27 | 0 | 0.0 | 0.0 | 0.00 | 0.30 | 0.10 | 94 | 1014.3 |
| 20260506023051 | 27 | 0 | 0.0 | 0.0 | 0.00 | 0.30 | 0.10 | 94 | 1014.3 |
| 20260506022543 | 27 | 0 | 0.0 | 0.0 | 0.00 | 0.30 | 0.10 | 94 | 1014.1 |
| 20260506022044 | 27 | 0 | 0.0 | 0.0 | 0.00 | 0.30 | 0.10 | 94 | 1014.1 |
| 20260506021559 | 27 | 0 | 0.0 | 0.0 | 0.00 | 0.30 | 0.10 | 94 | 1013.9 |
| 20260506021042 | 27 | 0 | 0.0 | 3.0 | 0.00 | 0.30 | 0.10 | 94 | 1014.0 |
| 20260506020543 | 27 | 0 | 0.0 | 4.0 | 0.00 | 0.30 | 0.10 | 94 | 1013.9 |
| 20260506020051 | 27 | 0 | 0.0 | 5.0 | 0.00 | 0.30 | 0.10 | 94 | 1013.8 |
| 20260506015547 | 27 | 0 | 1.0 | 6.0 | 0.00 | 0.33 | 0.10 | 94 | 1013.8 |
| 20260506015050 | 27 | 38 | 2.0 | 6.0 | 0.00 | 0.33 | 0.10 | 94 | 1013.8 |
| 20260506014559 | 27 | 0 | 0.0 | 0.0 | 0.00 | 0.33 | 0.10 | 94 | 1013.7 |
| 20260506014048 | 27 | 0 | 0.0 | 0.0 | 0.00 | 0.33 | 0.10 | 94 | 1013.6 |
| 20260506013548 | 27 | 0 | 0.0 | 0.0 | 0.00 | 0.33 | 0.10 | 94 | 1013.7 |
| 20260506013054 | 27 | 0 | 0.0 | 0.0 | 0.00 | 0.33 | 0.10 | 94 | 1013.6 |
| 20260506012548 | 27 | 0 | 0.0 | 4.0 | 0.00 | 0.33 | 0.10 | 93 | 1013.5 |
| 20260506012047 | 27 | 0 | 0.0 | 4.0 | 0.00 | 0.33 | 0.10 | 93 | 1013.5 |
| 20260506011547 | 28 | 38 | 0.0 | 0.0 | 0.00 | 0.33 | 0.10 | 93 | 1013.4 |
| 20260506011045 | 28 | 0 | 0.0 | 0.0 | 0.00 | 0.33 | 0.10 | 94 | 1013.5 |
| 20260506010547 | 28 | 0 | 0.0 | 2.0 | 0.00 | 0.33 | 0.10 | 94 | 1013.6 |
| 20260506005548 | 28 | 38 | 0.0 | 2.0 | 0.00 | 0.33 | 0.10 | 94 | 1013.3 |
| 20260506005047 | 28 | 0 | 0.0 | 0.0 | 0.00 | 0.33 | 0.10 | 94 | 1013.3 |
| 20260506004553 | 28 | 0 | 0.0 | 0.0 | 0.00 | 0.33 | 0.10 | 93 | 1013.3 |
| 20260506004047 | 28 | 0 | 0.0 | 0.0 | 0.00 | 0.33 | 0.10 | 94 | 1013.3 |
| 20260506003547 | 28 | 0 | 0.0 | 0.0 | 0.00 | 0.33 | 0.10 | 93 | 1013.3 |
| 20260506003051 | 28 | 0 | 0.0 | 0.0 | 0.00 | 0.33 | 0.10 | 93 | 1013.3 |
| 20260506002548 | 28 | 0 | 0.0 | 3.0 | 0.00 | 0.33 | 0.10 | 94 | 1013.3 |
| 20260506002048 | 28 | 0 | 0.0 | 4.0 | 0.00 | 0.33 | 0.10 | 94 | 1013.6 |
| 20260506001553 | 28 | 38 | 0.0 | 4.0 | 0.00 | 0.33 | 0.10 | 94 | 1013.6 |
| 20260506001048 | 28 | 0 | 0.0 | 4.0 | 0.00 | 0.33 | 0.10 | 94 | 1013.4 |
| 20260506000547 | 28 | 0 | 0.0 | 4.0 | 0.00 | 0.33 | 0.10 | 94 | 1013.4 |
| 20260506000049 | 28 | 0 | 0.0 | 6.0 | 0.00 | 0.33 | 0.10 | 94 | 1013.3 |
| 20260505235549 | 28 | 0 | 2.0 | 9.0 | 0.00 | 0.33 | 0.10 | 94 | 1013.4 |
| 20260505235048 | 28 | 38 | 2.0 | 9.0 | 0.00 | 0.33 | 0.10 | 94 | 1013.3 |
| 20260505234553 | 28 | 0 | 0.0 | 9.0 | 0.00 | 0.33 | 0.10 | 94 | 1013.4 |
| 20260505234048 | 28 | 38 | 2.0 | 9.0 | 0.00 | 0.33 | 0.10 | 94 | 1013.3 |
| 20260505233544 | 28 | 38 | 0.0 | 6.0 | 0.00 | 0.33 | 0.10 | 94 | 1013.3 |
| 20260505233059 | 28 | 38 | 2.0 | 8.0 | 0.00 | 0.33 | 0.10 | 94 | 1013.3 |
| 20260505232547 | 28 | 38 | 1.0 | 9.0 | 0.00 | 0.33 | 0.10 | 94 | 1013.2 |
| 20260505232047 | 28 | 38 | 2.0 | 9.0 | 0.00 | 0.33 | 0.10 | 94 | 1013.1 |
| 20260505231550 | 28 | 38 | 2.0 | 11.0 | 0.00 | 0.33 | 0.10 | 94 | 1013.1 |
| 20260505231046 | 28 | 38 | 2.0 | 11.0 | 0.00 | 0.33 | 0.10 | 94 | 1013.1 |
| 20260505230547 | 28 | 38 | 5.0 | 11.0 | 0.01 | 0.33 | 0.10 | 94 | 1013.1 |
| 20260505230054 | 28 | 38 | 2.0 | 9.0 | 0.01 | 0.33 | 0.10 | 94 | 1013.0 |
| 20260505225547 | 28 | 38 | 1.0 | 8.0 | 0.01 | 0.35 | 0.10 | 94 | 1012.9 |
| 20260505225048 | 28 | 0 | 0.0 | 8.0 | 0.01 | 0.35 | 0.10 | 94 | 1013.2 |
| 20260505224553 | 28 | 0 | 2.0 | 7.0 | 0.01 | 0.35 | 0.10 | 94 | 1013.2 |
| 20260505224049 | 28 | 0 | 0.0 | 8.0 | 0.01 | 0.35 | 0.10 | 94 | 1013.1 |
| 20260505223547 | 28 | 0 | 2.0 | 8.0 | 0.01 | 0.35 | 0.10 | 94 | 1013.2 |
| 20260505223057 | 28 | 0 | 2.0 | 12.0 | 0.01 | 0.35 | 0.10 | 94 | 1013.3 |
| 20260505222547 | 28 | 0 | 1.0 | 12.0 | 0.01 | 0.35 | 0.10 | 94 | 1012.9 |
| 20260505222047 | 28 | 38 | 3.0 | 15.0 | 0.02 | 0.35 | 0.10 | 94 | 1013.0 |
| 20260505221601 | 29 | 38 | 4.0 | 15.0 | 0.02 | 0.35 | 0.10 | 94 | 1012.7 |
| 20260505221050 | 29 | 38 | 5.0 | 13.0 | 0.02 | 0.35 | 0.10 | 93 | 1012.3 |
| 20260505220548 | 29 | 38 | 7.0 | 13.0 | 0.01 | 0.34 | 0.09 | 93 | 1012.3 |
| 20260505220050 | 29 | 38 | 5.0 | 12.0 | 0.02 | 0.34 | 0.09 | 93 | 1012.5 |
| 20260505215548 | 30 | 38 | 1.0 | 10.0 | 0.02 | 0.34 | 0.09 | 93 | 1013.0 |
| 20260505215047 | 30 | 38 | 3.0 | 11.0 | 0.02 | 0.34 | 0.09 | 93 | 1012.8 |
| 20260505214555 | 31 | 38 | 3.0 | 11.0 | 0.02 | 0.34 | 0.09 | 94 | 1012.4 |
| 20260505214050 | 31 | 38 | 2.0 | 10.0 | 0.03 | 0.34 | 0.09 | 94 | 1012.2 |
| 20260505213547 | 32 | 51 | 4.0 | 11.0 | 0.03 | 0.34 | 0.09 | 94 | 1012.1 |
| 20260505213054 | 32 | 55 | 5.0 | 11.0 | 0.03 | 0.34 | 0.09 | 94 | 1012.0 |
| 20260505212547 | 32 | 63 | 1.0 | 8.0 | 0.03 | 0.34 | 0.09 | 94 | 1012.3 |